TimeEST,TemperatureF,Dew PointF,Humidity,Sea Level PressureIn,VisibilityMPH,Wind Direction,Wind SpeedMPH,Gust SpeedMPH,PrecipitationIn,Events,Conditions,WindDirDegrees,DateUTC
12:51 AM,28.9,21.9,75,30.05,10.0,NNE,4.6,-,N/A,,Scattered Clouds,30,2012-12-29 05:51:00
1:51 AM,30.9,24.1,76,30.04,10.0,North,3.5,-,N/A,,Overcast,10,2012-12-29 06:51:00
2:51 AM,30.9,25.0,79,30.06,10.0,Calm,Calm,-,N/A,,Overcast,0,2012-12-29 07:51:00
3:51 AM,30.9,25.0,79,30.03,10.0,Calm,Calm,-,N/A,,Overcast,0,2012-12-29 08:51:00
4:51 AM,32.0,25.0,75,30.01,10.0,NE,4.6,-,N/A,,Overcast,40,2012-12-29 09:51:00
5:51 AM,32.0,25.0,75,29.99,10.0,NE,5.8,-,N/A,,Overcast,40,2012-12-29 10:51:00
6:51 AM,32.0,25.0,75,29.96,10.0,ENE,4.6,-,N/A,,Overcast,70,2012-12-29 11:51:00
7:51 AM,32.0,25.0,75,29.92,10.0,ENE,8.1,-,N/A,,Overcast,60,2012-12-29 12:51:00
8:33 AM,33.8,24.8,70,29.92,10.0,NE,6.9,-,N/A,,Overcast,50,2012-12-29 13:33:00
8:51 AM,33.1,25.0,72,29.90,10.0,NE,6.9,-,N/A,,Overcast,40,2012-12-29 13:51:00
9:51 AM,34.0,25.0,70,29.86,10.0,NE,9.2,-,N/A,,Overcast,40,2012-12-29 14:51:00
10:51 AM,35.1,27.0,72,29.81,10.0,NE,12.7,-,N/A,,Overcast,40,2012-12-29 15:51:00
11:21 AM,35.6,26.6,70,29.77,10.0,NNE,12.7,-,0.00,Snow,Light Ice Pellets,30,2012-12-29 16:21:00
11:33 AM,35.6,28.4,75,29.76,9.0,NNE,11.5,-,0.00,Rain-Snow,Light Rain,30,2012-12-29 16:33:00
11:51 AM,35.1,28.9,78,29.74,7.0,NNE,10.4,-,0.01,Rain-Snow,Light Rain,30,2012-12-29 16:51:00
12:51 PM,35.1,32.0,89,29.68,7.0,NE,11.5,-,0.04,Rain,Light Rain,40,2012-12-29 17:51:00
1:51 PM,37.0,34.0,89,29.62,6.0,NE,11.5,-,0.04,Rain,Light Rain,50,2012-12-29 18:51:00
2:01 PM,37.4,33.8,87,29.62,6.0,NE,12.7,-,0.01,Rain,Light Rain,40,2012-12-29 19:01:00
2:51 PM,37.0,34.0,89,29.59,6.0,NE,12.7,-,0.04,Rain,Light Rain,40,2012-12-29 19:51:00
3:51 PM,36.0,34.0,93,29.55,5.0,North,9.2,-,0.04,Rain,Light Rain,350,2012-12-29 20:51:00
4:51 PM,36.0,34.0,93,29.52,6.0,North,11.5,-,0.04,Rain,Light Rain,360,2012-12-29 21:51:00
5:51 PM,34.0,32.0,92,29.50,5.0,North,11.5,-,0.03,Snow,Light Snow,360,2012-12-29 22:51:00
6:51 PM,33.1,30.9,92,29.50,2.0,North,11.5,-,0.01,Snow,Light Snow,350,2012-12-29 23:51:00
7:51 PM,32.0,30.0,92,29.51,3.0,NNW,15.0,-,0.01,Snow,Light Snow,340,2012-12-30 00:51:00
8:08 PM,32.0,30.2,93,29.51,6.0,NNW,16.1,-,0.00,Snow,Light Snow,340,2012-12-30 01:08:00
8:51 PM,32.0,28.9,88,29.52,9.0,NW,15.0,-,0.00,Snow,Light Snow,320,2012-12-30 01:51:00
9:40 PM,32.0,28.4,87,29.54,2.0,NNW,13.8,-,0.00,Snow,Light Snow,330,2012-12-30 02:40:00
9:51 PM,32.0,28.9,88,29.55,5.0,NW,13.8,-,0.00,Snow,Light Snow,310,2012-12-30 02:51:00
10:40 PM,32.0,28.4,87,29.57,8.0,NW,16.1,-,0.00,Snow,Light Snow,310,2012-12-30 03:40:00
10:51 PM,32.0,28.0,85,29.57,8.0,NW,17.3,24.2,0.00,Snow,Light Snow,320,2012-12-30 03:51:00
11:51 PM,33.1,28.0,82,29.59,9.0,NW,16.1,-,0.00,Snow,Light Snow,320,2012-12-30 04:51:00